Flag for Norway Weather past 2 weeks in Bergen, Norway

Now
33 °F

Chilly.


Feels Like: 29 °F
Forecast: 38 / 44 °F
Wind: 3 mph from Southeast

Location: Bergen / Florida

Current Time: Jan 27, 2015 at 2:49:39 AM

Latest Report: Jan 27, 2015 at 2:00 AM


Visibility: N/A

Pressure: 29.90 "Hg

Humidity: 89%

Dew point: 30 °F

Location of BergenLocation

Historic Weather in Bergen — Graph

°F

Bergen temperature yesterday

Maximum temperature yesterday: 45 °F (at 3:00 AM)
Minimum temperature yesterday: 34 °F (at 11:00 PM)
Average temperature yesterday: 41 °F

Past Weeks' High & Low Weather Summary

 TemperatureHumidityPressure
High46 °F (Jan 12, 12:00 PM)92% (Jan 19, 3:00 AM)30.24 "Hg (Jan 19, 3:00 AM)
Low24 °F (Jan 22, 4:00 AM)38% (Jan 21, 8:00 AM)28.53 "Hg (Jan 16, 5:00 AM)
Average37 °F75%29.55 "Hg
* Reported Jan 12 1:00 AM — Jan 27 1:00 AM, Bergen, Weather by CustomWeather, © 2014

Note: Actual official high and low records may vary slightly from our data, if they occured in-between our weather recording intervals... More about our weather records

Advertising

Bergen weather history for previous 24 hours

 ConditionsComfort  
Time TempWeatherWind HumidityBarometerVisibility
1:00 AM
Jan 27
33 °FChilly.3 mph89%29.90 "HgN/A
12:00 AM34 °FChilly.2 mph88%29.89 "HgN/A
11:00 PM
Jan 26
34 °FChilly.2 mph88%29.87 "HgN/A
9:00 PM35 °FChilly.1 mph86%29.83 "HgN/A
8:00 PM36 °FChilly.1 mph85%29.80 "HgN/A
7:00 PM38 °FLow clouds.1 mph86%29.77 "Hg16 mi
6:00 PM38 °FChilly.1 mph85%29.75 "HgN/A
5:00 PM38 °FChilly.3 mph83%29.72 "HgN/A
4:00 PM40 °FOvercast.2 mph81%29.70 "Hg19 mi
3:00 PM40 °FQuite cool.2 mph79%29.70 "HgN/A
2:00 PM40 °FQuite cool.1 mph80%29.69 "HgN/A
1:00 PM41 °FPartly sunny.1 mph81%29.69 "Hg19 mi
12:00 PM41 °FQuite cool.5 mph84%29.69 "HgN/A
11:00 AM41 °FQuite cool.5 mph80%29.69 "HgN/A
10:00 AM40 °FOvercast.3 mph81%29.69 "Hg19 mi
9:00 AM41 °FQuite cool.5 mph79%29.70 "HgN/A
8:00 AM41 °FQuite cool.5 mph80%29.71 "HgN/A
7:00 AM43 °FDrizzle. Overcast.2 mph84%29.70 "Hg16 mi
6:00 AM44 °FQuite cool.1 mph84%29.71 "HgN/A
5:00 AM45 °FQuite cool.5 mph86%29.72 "HgN/A
4:00 AM45 °FQuite cool.2 mph87%29.73 "HgN/A
3:00 AM45 °FCool.2 mph88%29.74 "HgN/A
2:00 AM44 °FQuite cool.3 mph87%29.75 "HgN/A
Weather by CustomWeather, © 2014

See weather overviewHow to use our weather pages